Bridgeport, CT

9:31 PM EDT on July 22, 2017 (GMT -0400)
Sikorsky Memorial

Weather History for KBDR - March, 2013

Change the Weather History Date:

Tuesday, March 12, 2013

  Actual Average Record
Temperature  
Mean Temperature 48 °F 38 °F  
Max Temperature 52 °F 46 °F 65 °F (2012)
Min Temperature 43 °F 30 °F 11 °F (1984)
Degree Days  
Heating Degree Days 17 27  
Month to date heating degree days 308 342  
Since 1 July heating degree days 3931 4229  
Cooling Degree Days 0 0  
Month to date cooling degree days 0 0  
Year to date cooling degree days 0 0  
Moisture  
Dew Point 47 °F    
Average Humidity 92    
Maximum Humidity 100    
Minimum Humidity 83    
Precipitation  
Precipitation 0.81 in 0.13 in 1.53 in (1968)
Month to date precipitation 1.68 1.50  
Year to date precipitation 8.70 7.39  
Snow  
Snow 0.00 in 0.10 in 7.00 in (2015)
Month to date snowfall 10.0 2.7  
Since 1 July snowfall 61.3 24.3  
Snow Depth 0.00 in    
Sea Level Pressure  
Sea Level Pressure 29.82 in    
Wind  
Wind Speed 11 mph (South)    
Max Wind Speed 28 mph    
Max Gust Speed 36 mph    
Visibility 5 miles    
Events Rain    
T = Trace of Precipitation, MM = Missing Value Source: NWS Daily Summary

Daily Weather History Graph

Daily Weather History Graph

Search for Another Location

Airport or City:

Trip Planner

Search our weather history database for the weather conditions in past years. The results will help you decide how hot, cold, wet, or windy it might be!

Date:

Astronomy

Mar. 12, 2013 Rise Set
Actual Time 7:08 AM EDT 6:56 PM EDT
Civil Twilight 6:41 AM EDT 7:23 PM EDT
Nautical Twilight 6:09 AM EDT 7:55 PM EDT
Astronomical Twilight 5:37 AM EDT 8:27 PM EDT
Moon 7:13 AM EDT (3/12) 8:09 PM EDT (3/12)
Length of Visible Light 12h 42m
Length of Day
11h 47m
New Moon, 1% of the Moon is Illuminated
Mar 12
New Moon
Mar 19
First Quarter
Mar 27
Full
Apr 3
Last Quarter
Apr 10
New

Hourly Weather History & Observations

Time (EDT) Temp. Windchill Dew Point Humidity Pressure Visibility Wind Dir Wind Speed Gust Speed Precip Events Conditions
12:52 AM 45.0 °F 41.8 °F 44.1 °F 97% 30.10 in 10.0 mi SSE 5.8 mph - N/A   Partly Cloudy
1:52 AM 46.9 °F - 44.1 °F 90% 30.08 in 10.0 mi South 8.1 mph - N/A   Clear
2:52 AM 48.0 °F - 45.0 °F 89% 30.04 in 10.0 mi South 11.5 mph - N/A   Clear
3:52 AM 48.9 °F - 45.0 °F 86% 30.02 in 10.0 mi South 11.5 mph - N/A   Scattered Clouds
4:52 AM 48.9 °F - 44.1 °F 83% 30.02 in 10.0 mi South 9.2 mph - N/A   Overcast
5:52 AM 48.9 °F - 44.1 °F 83% 30.00 in 10.0 mi South 11.5 mph - N/A   Overcast
6:52 AM 48.0 °F - 44.1 °F 86% 29.99 in 10.0 mi South 6.9 mph - 0.01 in   Overcast
7:52 AM 48.0 °F - 44.1 °F 86% 29.99 in 8.0 mi SSE 3.5 mph - 0.01 in Rain Light Rain
8:52 AM 48.9 °F - 46.0 °F 90% 29.99 in 5.0 mi Variable 4.6 mph - 0.03 in Rain Light Rain
9:52 AM 48.0 °F - 46.0 °F 93% 29.97 in 6.0 mi South 8.1 mph - 0.03 in Rain Light Rain
10:52 AM 48.0 °F - 46.0 °F 93% 29.95 in 5.0 mi SSE 9.2 mph - 0.07 in Rain Light Rain
11:52 AM 48.0 °F - 46.0 °F 93% 29.92 in 5.0 mi SSE 9.2 mph - 0.04 in Rain Light Rain
12:52 PM 48.9 °F - 46.9 °F 93% 29.89 in 5.0 mi SSE 12.7 mph - 0.04 in Rain Light Rain
1:40 PM 48.2 °F - 48.2 °F 100% 29.86 in 5.0 mi SSE 12.7 mph - 0.04 in Rain Light Rain
1:52 PM 48.9 °F - 48.0 °F 97% 29.85 in 4.0 mi South 13.8 mph - 0.05 in Rain Light Rain
2:52 PM 50.0 °F - 48.9 °F 96% 29.80 in 3.0 mi South 15.0 mph 24.2 mph 0.08 in Rain Rain
3:00 PM 50.0 °F - 48.2 °F 94% 29.80 in 3.0 mi South 16.1 mph - 0.02 in Rain Rain
3:08 PM 50.0 °F - 48.2 °F 94% 29.79 in 3.0 mi South 16.1 mph 24.2 mph 0.04 in Rain Rain
3:28 PM 51.8 °F - 48.2 °F 88% 29.77 in 3.0 mi SSE 18.4 mph - 0.07 in Rain Light Rain
3:52 PM 51.1 °F - 48.9 °F 92% 29.75 in 3.0 mi South 19.6 mph 26.5 mph 0.12 in Rain Rain
4:07 PM 51.8 °F - 50.0 °F 94% 29.73 in 3.0 mi South 20.7 mph 27.6 mph 0.03 in Rain Rain
4:14 PM 51.8 °F - 50.0 °F 94% 29.72 in 3.0 mi SSE 19.6 mph 27.6 mph 0.05 in Rain Rain
4:52 PM 52.0 °F - 50.0 °F 93% 29.70 in 2.5 mi South 20.7 mph 28.8 mph 0.15 in Rain Rain
5:04 PM 51.8 °F - 50.0 °F 94% 29.69 in 1.2 mi South 21.9 mph 29.9 mph 0.08 in Rain Heavy Rain
5:29 PM 51.8 °F - 51.8 °F 100% 29.69 in 2.0 mi South 19.6 mph 27.6 mph 0.15 in   Overcast
5:45 PM 51.8 °F - 51.8 °F 100% 29.69 in 1.8 mi SSW 26.5 mph 33.4 mph 0.17 in   Overcast
5:52 PM 52.0 °F - 50.0 °F 93% 29.69 in 1.8 mi South 24.2 mph 35.7 mph 0.17 in   Overcast
6:07 PM 51.8 °F - 50.0 °F 94% 29.70 in 2.5 mi SSW 25.3 mph - 0.00 in Rain Light Rain
6:14 PM 51.8 °F - 48.2 °F 88% 29.70 in 3.0 mi SSW 23.0 mph 32.2 mph 0.01 in Rain Light Rain
6:24 PM 50.0 °F - 48.2 °F 94% 29.70 in 4.0 mi South 23.0 mph 33.4 mph 0.01 in   Overcast
6:52 PM 48.9 °F - 48.9 °F 100% 29.71 in 4.0 mi South 19.6 mph 27.6 mph 0.01 in   Overcast
7:01 PM 48.2 °F - 48.2 °F 100% 29.72 in 3.0 mi South 20.7 mph - N/A   Overcast
7:05 PM 48.2 °F - 48.2 °F 100% 29.72 in 2.5 mi SSW 18.4 mph - N/A   Overcast
7:17 PM 48.2 °F - 48.2 °F 100% 29.73 in 1.8 mi SSW 17.3 mph - N/A   Overcast
7:47 PM 48.2 °F - 46.4 °F 93% 29.74 in 3.0 mi SSW 13.8 mph - N/A   Overcast
7:52 PM 48.0 °F - 46.9 °F 96% 29.74 in 5.0 mi SSW 12.7 mph - N/A   Overcast
8:06 PM 46.4 °F 42.4 °F 46.4 °F 100% 29.75 in 2.5 mi WSW 8.1 mph - 0.00 in Rain Light Rain
8:16 PM 46.4 °F 42.4 °F 46.4 °F 100% 29.76 in 4.0 mi SW 8.1 mph - 0.00 in   Overcast
8:30 PM 46.4 °F 42.4 °F 46.4 °F 100% 29.76 in 1.8 mi SW 8.1 mph - 0.00 in   Overcast
8:52 PM 46.0 °F 41.9 °F 46.0 °F 100% 29.76 in 0.8 mi SW 8.1 mph - 0.00 in   Overcast
8:56 PM 46.4 °F 43.5 °F 44.6 °F 93% 29.76 in 1.2 mi WSW 5.8 mph - N/A   Overcast
9:03 PM 46.4 °F 44.3 °F 44.6 °F 93% 29.76 in 3.0 mi WSW 4.6 mph - N/A   Overcast
9:52 PM 45.0 °F 42.6 °F 44.1 °F 97% 29.77 in 5.0 mi WSW 4.6 mph - N/A   Overcast
10:27 PM 48.2 °F - 46.4 °F 93% 29.77 in 10.0 mi WNW 5.8 mph - N/A   Overcast
10:34 PM 48.2 °F - 46.4 °F 93% 29.77 in 10.0 mi NNW 17.3 mph 23.0 mph N/A   Overcast
10:52 PM 46.9 °F - 44.1 °F 90% 29.78 in 10.0 mi NNW 11.5 mph 19.6 mph N/A   Overcast
11:30 PM 46.4 °F 44.3 °F 41.0 °F 81% 29.81 in 10.0 mi NNW 4.6 mph - N/A   Mostly Cloudy
11:52 PM 45.0 °F 41.2 °F 39.9 °F 82% 29.81 in 10.0 mi North 6.9 mph - N/A   Overcast